sat.trackr.live / text

‹ back to catalog

STARLINK-2698

NORAD 48458 · 2021-040AG

PAYLOAD ACTIVE UNKNOWN

§ Identity

Operator
Country
US
Launch date
2021-05-09
Launch site
AFETR
Launch vehicle
Mass (kg)
RCS (m²)

Purposes: comms

External: N2YO · Heavens-Above · Gunter

§ Orbital elements

Epoch: 2026-05-24T19:33:44.099136Z

Period
94.01 min
Inclination
53.1576°
Eccentricity
0.0001332
Mean motion
15.31702332 rev/d
Perigee alt
469.8 km
Apogee alt
471.6 km
Semi-major
6,848.9 km
B*
5.1356e-5
RAAN
184.7029°
Arg perigee
81.4579°
Mean anomaly
278.6573°
Rev number
27,905

§ Raw data

STARLINK-26981 48458U 21040AG  26144.81509374  .00001229  00000+0  51356-4 0  99972 48458  53.1576 184.7029 0001332  81.4579 278.6573 15.31702332279050

JSON: /api/v1/satellites/48458 · /tle

For live sub-satellite position, see the globe view (requires WebGL).

§ Visibility from observer

Set your observer location to see the next 7 days of passes ≥ 10°. The values pass through the URL so the page stays shareable.

No JS? Fill the form by hand. The geolocation button needs JavaScript.